Flag for Germany Weather past 2 weeks in Niederkassel, North Rhine-Westphalia, Germany

Now
69 °F

Overcast.


Feels Like: 69 °F
Forecast: 66 / 91 °F
Wind: 5 mph from Southeast

Location: Bonn-Hangelar

Current Time: Aug 29, 2015 at 11:59:05 PM

Latest Report: Aug 29, 2015 at 11:00 PM


Visibility: 10 mi

Pressure: 30.09 "Hg

Humidity: 87%

Dew point: 65 °F

Location of NiederkasselLocation

Historic Weather in Niederkassel — Graph

°F

Niederkassel temperature yesterday

Maximum temperature yesterday: 67 °F (at 5:00 PM)
Minimum temperature yesterday: 52 °F (at 7:00 AM)
Average temperature yesterday: 60 °F

Past Weeks' High & Low Weather Summary

 TemperatureHumidityPressure
High81 °F (Aug 23, 3:00 PM)100% (Aug 15, 6:00 PM)30.24 "Hg (Aug 15, 6:00 PM)
Low49 °F (Aug 19, 6:00 AM)33% (Aug 23, 3:00 PM)29.50 "Hg (Aug 24, 3:00 PM)
Average63 °F79%29.96 "Hg
* Reported Aug 14 10:00 PM — Aug 29 10:00 PM, Niederkassel, Weather by CustomWeather, © 2015

Note: Actual official high and low records may vary slightly from our data, if they occured in-between our weather recording intervals... More about our weather records

Advertising

Niederkassel weather history for previous 24 hours

 ConditionsComfort  
Time TempWeatherWind HumidityBarometerVisibility
10:00 PM
Sat, Aug 29
67 °FOvercast.3 mph91%30.10 "Hg9 mi
9:00 PM69 °FPassing clouds.3 mph88%30.09 "Hg14 mi
8:00 PM73 °FScattered clouds.3 mph78%30.09 "Hg15 mi
7:00 PM75 °FScattered clouds.5 mph75%30.08 "Hg19 mi
6:00 PM78 °FSunny.1 mph65%30.09 "Hg40 mi
5:00 PM76 °FSunny.2 mph69%30.10 "Hg28 mi
4:00 PM75 °FPassing clouds.2 mph67%30.11 "Hg25 mi
3:00 PM74 °FOvercast.1 mph70%30.14 "Hg22 mi
2:00 PM71 °FOvercast.2 mph72%30.16 "Hg19 mi
1:00 PM69 °FOvercast.2 mph76%30.17 "Hg22 mi
12:00 PM69 °FScattered clouds.2 mph78%30.18 "Hg22 mi
11:00 AM67 °FSunny.2 mph79%30.18 "Hg18 mi
10:00 AM63 °FPartly sunny.3 mph86%30.19 "Hg19 mi
9:00 AM60 °FOvercast.2 mph90%30.19 "Hg19 mi
7:00 AM54 °FSunny.2 mph91%30.19 "Hg37 mi
6:00 AM54 °FClear.2 mph92%30.19 "Hg40 mi
5:00 AM55 °FClear.1 mph92%30.20 "Hg31 mi
4:00 AM53 °FClear.3 mph94%30.19 "Hg19 mi
3:00 AM54 °FClear.2 mph94%30.19 "Hg9 mi
2:00 AM56 °FClear.2 mph90%30.19 "Hg12 mi
1:00 AM55 °FClear.2 mph88%30.20 "Hg19 mi
11:00 PM
Fri, Aug 28
60 °FClear.1 mph82%30.18 "Hg28 mi
Weather by CustomWeather, © 2015

See weather overviewHow to use our weather pages